www.pogodaiklimat.ru
ПОГОДА на Плотине Пумипона
Время
(UTC), дата
12 28.06
15 28.06
18 28.06
21 28.06
00 29.06
03 29.06
06 29.06
09 29.06
12 29.06
15 29.06
18 29.06
21 29.06
00 30.06
03 30.06
06 30.06
09 30.06
12 30.06
15 30.06
18 30.06
21 30.06
00 1.07
03 1.07
06 1.07
09 1.07
12 1.07
15 1.07
18 1.07
21 1.07
00 2.07
03 2.07
06 2.07
09 2.07
12 2.07
15 2.07
18 2.07
21 2.07
00 3.07
03 3.07
06 3.07
09 3.07
12 3.07
15 3.07
18 3.07
21 3.07
00 4.07
03 4.07
06 4.07
09 4.07
12 4.07
15 4.07
18 4.07
21 4.07
00 5.07
03 5.07
06 5.07
09 5.07
Ветер
(напр.,м/с)
Видим. Явления Облачность Т
(С)
Тd
(С)
f
(%)
Тe
(С)
Тes
(С)
Комфортность P
(гПа)
Po
(гПа)
Тmin
(С)
Tmax
(С)
R
(мм)
R24
(мм)
S
(см)
ЮЗ 4 7000 м мгла 3/3 600 м
[Sc Cs]
+32.5 +23.1 58 +43 +43 опасность
перегрева
1003.1 987.1 +36.5
ЮЗ 4 7000 м мгла 3/0
[Cs]
+30.0 +22.2 63 +39 +39 очень
душно
1006.1 989.9
штиль 0 7000 м дымка 3/0
[Cs]
+28.0 +22.1 70 +36 +36 очень
душно
1005.7 989.4
штиль 0 7000 м дымка 3/0
[Cs]
+28.0 +25.9 88 +42 +42 опасность
перегрева
1005.8 989.5
штиль 0 12 км 1/0
[Ac trans]
+28.8 +21.7 66 +37 +39 очень
душно
1006.0 989.8 +28.0
штиль 0 12 км 1/1 600 м
[Cu med, cong Ac trans]
+33.6 +22.9 54 +44 +62 опасность
перегрева
1006.4 990.4
штиль 0 12 км 3/3 600 м
[Cu Sc Ci sp]
+37.2 +23.2 45 +47 +68 опасность
перегрева
1004.1 988.3
штиль 0 12 км 5/3 600 м
[Cb calv Ac lent Cs]
+38.4 +23.6 43 +49 +56 опасность
перегрева
1001.4 985.7
штиль 0 12 км 5/1 600 м
[Cu Sc Ac trans Cs]
+33.2 +23.3 56 +44 +44 опасность
перегрева
1002.5 986.5 +39.0
ЮЗ 4 10 км 5/1 600 м
[Sc Ac trans Cs]
+30.7 +22.7 62 +40 +40 очень
душно
1005.1 988.9
ЮЗ 4 10 км 3/1 600 м
[Sc Cs]
+29.1 +22.0 66 +38 +38 очень
душно
1005.2 988.9
штиль 0 10 км 3/1 600 м
[Sc Cs]
+28.6 +21.8 67 +37 +37 очень
душно
1004.3 988.1
штиль 0 12 км 3/0
[Ac trans Ci fib]
+28.6 +22.4 69 +37 +39 очень
душно
1005.7 989.4 +28.2
штиль 0 12 км 6/3 600 м
[Cu Sc Ac und Cs]
+33.1 +22.8 55 +43 +54 опасность
перегрева
1006.5 990.4
штиль 0 12 км 6/3 600 м
[Cu Sc Ac und Cs]
+36.5 +23.7 48 +47 +63 опасность
перегрева
1004.5 988.6
штиль 0 12 км 6/3 300 м
[Cb cap Ac As Cs]
+36.5 +23.7 48 +47 +54 опасность
перегрева
1001.9 986.1
штиль 0 12 км 6/3 300 м
[Cb cap Ac cuf Ci ing]
+32.0 +23.0 59 +42 +42 опасность
перегрева
1002.9 986.9 +36.6
ЮЗ 4 10 км 8/3 600 м
[Sc Ac trans Cs]
+30.0 +22.2 63 +39 +39 очень
душно
1005.2 989.0
штиль 0 10 км 6/3 50 м
[Sc Ac und Cs]
+28.9 +21.9 66 +37 +37 очень
душно
1005.0 988.8
штиль 0 8000 м дымка 5/1 600 м
[Sc Ac lent Cs]
+28.4 +22.7 71 +38 +38 очень
душно
1003.6 987.3
штиль 0 12 км 8/3 600 м
[Cu Sc Ac lent Cs]
+28.9 +22.4 68 +38 +39 очень
душно
1005.8 989.6 +28.0
штиль 0 12 км 6/3 600 м
[Cu Sc Ac lent Cs]
+32.1 +23.0 59 +42 +54 опасность
перегрева
1006.2 990.1
штиль 0 12 км 6/3 600 м
[Cu Sc Ac lent Cs]
+33.6 +23.2 55 +44 +60 опасность
перегрева
1004.5 988.5
З 5 12 км 5/1 600 м
[Cu Sc Ac lent Cs]
+33.5 +21.9 51 +42 +45 опасность
перегрева
1001.9 986.0
З 6 10 км 8/3 600 м
[Cu Sc Ac lent Cs]
+29.6 +21.9 63 +38 +38 очень
душно
1003.2 987.0 +34.0
З 4 10 км 8/3 600 м
[Cu Sc Ac lent Cs]
+29.3 +22.1 65 +38 +38 очень
душно
1004.9 988.7
ЮЗ 4 10 км 6/3 600 м
[Sc Ac lent Cs]
+28.9 +21.6 65 +37 +37 очень
душно
1003.3 987.1
штиль 0 10 км 8/3 600 м
[Sc Ac lent Cs]
+29.0 +21.6 64 +37 +37 очень
душно
1002.5 986.3
ЮЗ 2 7000 м дымка 8/4 600 м
[Sc Ac und Cs]
+29.0 +22.4 68 +38 +39 очень
душно
1004.1 987.8 +26.5
ЮЗ 4 8000 м мгла 10/5 600 м
[Sc Ac und Cs]
+31.5 +23.1 61 +42 +44 опасность
перегрева
1005.4 989.3
З 5 7000 м мгла 8/5 600 м
[Sc Ac und Cs]
+35.0 +22.7 49 +45 +49 опасность
перегрева
1003.2 987.3
ЮЗ 5 8000 м мгла 6/4 600 м
[Cu med, cong Ac lent Cs]
+34.5 +23.8 54 +46 +48 опасность
перегрева
1001.3 985.4
З 6 7000 м мгла 6/3 600 м
[Cu med, cong Ac und Cs]
+31.0 +22.5 61 +41 +41 опасность
перегрева
1001.7 985.6 +36.5
З 8 7000 м дымка 3/3 600 м
[Cu med, cong Cs]
+29.0 +22.4 68 +38 +38 очень
душно
1004.3 988.1
ЮЗ 5 7000 м дымка 8/4 600 м
[Sc Ac und Cs]
+29.0 +22.4 68 +38 +38 очень
душно
1003.6 987.4
ЮЗ 3 7000 м дымка 8/3 600 м
[Cu med, cong Ac und Cs]
+28.0 +22.4 72 +37 +37 очень
душно
1003.4 987.1
штиль 0 7000 м дымка 8/6 600 м
[Sc Ac und Cs]
+28.7 +22.5 69 +38 +38 очень
душно
1004.1 987.8 +26.5
З 4 7000 м мгла 8/4 600 м
[Sc Ac und Cs]
+32.0 +22.5 57 +41 +45 опасность
перегрева
1006.0 989.9
ЮЗ 3 8000 м мгла 8/5 600 м
[Sc Ac und Cs]
+33.0 +23.2 56 +43 +50 опасность
перегрева
1004.9 988.9
ЮЗ 4 7000 м мгла 8/4 600 м
[Sc Ac und Cs]
+33.0 +22.4 54 +42 +45 опасность
перегрева
1002.9 986.9
З 6 7000 м мгла 8/5 600 м
[Sc Ac und Cs]
+30.0 +22.4 64 +39 +39 очень
душно
1003.6 987.5 +33.8
ЮЗ 4 7000 м дымка 8/4 600 м
[Sc Ac und Cs]
+28.5 +21.8 67 +37 +37 очень
душно
1006.0 989.7
З 3 7000 м дымка 8/4 600 м
[Sc Ac und Cs]
+28.5 +21.8 67 +37 +37 очень
душно
1006.1 989.8
З 3 7000 м дымка 8/5
[Sc Ac und Cs]
+27.5 +21.5 70 +35 +35 очень
душно
1005.5 989.2
штиль 0 7000 м дымка 10/6 600 м
[Sc Ac und Cs]
+27.8 +23.7 78 +38 +38 очень
душно
1006.6 990.3 +26.0
ЮЗ 5 7000 м дымка 10/6 600 м
[Sc Ac und Cs]
+29.7 +22.8 67 +40 +41 очень
душно
1008.9 992.7
З 3 8000 м мгла 8/5 600 м
[Sc Ac und Cs]
+33.5 +23.4 56 +44 +51 опасность
перегрева
1006.3 990.3
З 4 7000 м мгла 8/5 600 м
[Sc Ac und Cs]
+32.0 +23.3 60 +43 +45 опасность
перегрева
1004.1 988.0
З 7 7000 м дымка 8/6 600 м
[Sc Ac und Cs]
+29.0 +22.4 68 +38 +38 очень
душно
1005.2 988.9 +33.5
СЗ 5 7000 м дымка 8/4 600 м
[Sc Ac und Cs]
+26.5 +22.3 78 +35 +35 очень
душно
1007.6 991.2
штиль 0 7000 м дымка 8/6 600 м
[Sc Ac und Cs]
+27.5 +20.7 66 +34 +34 очень
душно
1006.9 990.6
штиль 0 7000 м дымка 8/6 600 м
[Sc Ac und Cs]
+26.5 +21.2 73 +34 +34 очень
душно
1006.5 990.1
штиль 0 8000 м дымка 10/5 600 м
[Sc Ac As Cs]
+27.5 +22.0 72 +36 +36 очень
душно
1007.1 990.7 +26.5
штиль 0 8000 м мгла 8/4 600 м
[Cu Sc Ac As Cs]
+31.8 +22.9 59 +42 +50 опасность
перегрева
1007.2 991.1
штиль 0 12 км 6/3 600 м
[Cu Sc Ac lent Cs]
+35.5 +23.0 49 +46 +62 опасность
перегрева
1005.3 989.4
штиль 0 12 км 8/3 600 м
[Cu Sc Ac As Cs]
+35.5 +22.5 47 +45 +50 опасность
перегрева
1003.1 987.2
Местоположение метеостанции Плотина Пумипона (Таиланд): широта 17.25 долгота 99.02 высота над уровнем моря 144 м.
В архиве по умолчанию представлена погода на Плотине Пумипона за последнюю неделю. Архивные данные за месяц целиком и за предыдущие месяцы, начиная с января 2011 года, Вы можете получить, выбрав интересующий диапазон дат из раскрывающегося списка и нажав кнопку "Найти!".
*Определитесь, кто Вы:
Внимание! Время в таблицах - всемирное. Для получения местного времени необходимо прибавить поправку, которая равна 7 ч.
Смотрите также архив погоды в соседних городах и на ближайших метеорологических станциях:
Партнеры нашего сайта:      
Пояснения к столбцам:
  • Ветер - указаны скорость ветра в м/с - средняя за 10 мин, порывы в срок и между сроками (в фигурных скобках) и направление, откуда дует ветер: С - северный,
  • СВ - северо-восточный, В - восточный, ЮВ - юго-восточный, Ю - южный, ЮЗ - юго-западный, З - западный, СЗ - северо-западный.
  • Видимость - горизонтальная дальность видимости в метрах или километрах. При видимости от 1 до 10 км при отсутствии осадков обычно наблюдается дымка, при ухудшении видимости до 1 км и менее - туман. В сухую погоду видимость может ухудшаться дымом, пылью или мглою.
  • Явления - указаны атмосферные явления, наблюдавшиеся в срок или в последний час перед сроком; фигурными скобками обозначены явления, наблюдавшиеся между сроками (за 1-3 часа до срока); квадратными скобками обозначены град или гололедные отложения с указанием их диаметра в мм.
  • Облачность - указаны через наклонную черту общая и нижняя облачность в баллах и высота нижней границы облаков в метрах; квадратными скобками обозначены формы облаков: Ci - перистые, Cs - перисто-слоистые, Cc - перисто-кучевые, Ac - высококучевые, As - высокослоистые, Sc - слоисто-кучевые, Ns - слоисто-дождевые, Cu - кучевые, Cb - кучево-дождевые. Подробнее классификацию облаков см. в Атласе облаков (PDF).
  • T - Температура воздуха - температура, измеренная на высоте 2 м над землей.
  • Td - Температура точки росы - температура, при понижении до которой содержащийся в воздухе водяной пар достигнет насыщения.
  • f - Относительная влажность воздуха - влажноcть воздуха, измеренная на высоте 2 м над землей.
  • Te - Эффективная температура - температура, которую ощущает одетый по сезону человек в тени. Характеристика душности погоды. При расчете учитывается влияние влажности воздуха и скорости ветра на теплоощущения человека.
  • Tes - Эффективная температура на солнце - температура, которую ощущает человек, с поправкой на солнечный нагрев. Характеристика знойности погоды. Зависит от высоты солнца над горизонтом, облачности и скорости ветра. Ночью, в пасмурную погоду, а также при ветре 12 м/с и более поправка равна нулю.
  • P - Атмосферное давление - приведенное к уровню моря атмосферное давление.
  • Po - Атмосферное давление - измеренное на уровне метеостанции атмосферное давление.
  • Tmin - Минимальная температура - минимум температуры воздуха на высоте 2 м над землей.
  • Tmax - Максимальная температура - максимум температуры воздуха на высоте 2 м над землей.
  • R - Количество осадков - Количество выпавших осадков за период времени, мм. При наведении курсора мыши на число - период времени, за который выпало указанное количество осадков.
  • R24 - Количество осадков - Количество выпавших осадков за 24 часа, мм.
  • S - Снежный покров - Высота снежного покрова, см. При наведении курсора мыши на число - состояние снежного покрова и степень покрытия местности в баллах.